Regional Weather Roundup
Issued by NWS

Home | Current Version | Previous Version | Text Only | Print | Product List | Glossary On
Versions: 1 2 3 4 5 6 7 8 9 10 11 12 13 14 15 16 17 18 19 20 21 22 23 24 25 26 27 28 29 30 31 32 33 34 35 36 37 38 39 40 41 42 43 44 45 46 47 48 49 50
000
ASMX46 KSGX 262303
RWRMX

MEXICAN WEATHER ROUNDUP
NATIONAL WEATHER SERVICE SAN DIEGO CA
300 PM PST FRI DEC 26 2014

BAJA CALIFORNIA

CITY           SKY/WX    TMP DP  RH WIND       PRES   REMARKS
ENSENADA NW      N/A     64  32  30 NW7       30.00R
LA PAZ         PTSUNNY   77  57  50 N8        29.91
LORETO         PTSUNNY   70  57  64 N17       29.90S
MEXICALI       SUNNY     61  12  15 NW6       30.07
S.J. DEL CABO  PTSUNNY   75  61  60 SE12      29.93R
TIJUANA        SUNNY     63  12  14 SE7       30.04S

NORTHWESTERN MEXICO

CITY           SKY/WX    TMP DP  RH WIND       PRES   REMARKS
CHIHUAHUA      PTSUNNY   70  21  16 SW23G35   29.85
CULIACAN       CLOUDY    81  63  54 CALM      29.92
GUAYMAS        MOSUNNY   70  54  56 SW12      29.89
HERMOSILLO     PTSUNNY   70  43  37 S9        29.94
JUAREZ         DRIZZLE   37  37 100 SW7       29.90  WCI  32
LOS MOCHIS     CLOUDY    75  54  46 SW6       29.93F
OBREGON        CLOUDY    72  54  53 SW9       29.90

NORTHEASTERN MEXICO

CITY           SKY/WX    TMP DP  RH WIND       PRES   REMARKS
MATAMOROS      PTCLDY    73  66  78 SE23      29.89
MONCLOVA       MOSUNNY   81  39  22 CALM      29.77S
MONTERREY      SUNNY     75  50  41 SE9       29.82R
NUEVO LAREDO   CLEAR     81  59  47 SE6       29.83
PIEDRAS NEGRAS CLEAR     72  46  40 SE6       29.83S
REYNOSA        CLEAR     77  59  53 SE10      29.82
SALTILLO       SUNNY     75  45  33 S14       29.98S
TORREON        PTSUNNY   79  36  21 S6        29.89S
VICTORIA       PTSUNNY   72  54  53 S14       29.85

WESTERN MEXICO

CITY           SKY/WX    TMP DP  RH WIND       PRES   REMARKS
AGUASCALIENTES PTSUNNY   68  27  21 S18       30.17
COLIMA         PTSUNNY   79  63  57 W12       29.98S
DURANGO        PTSUNNY   64  32  29 SW18      30.11R
GUADALAJARA    PTSUNNY   72  45  37 SW5       30.11
MAZATLAN       PTSUNNY   77  63  61 S10       29.89S
PTO. VALLARTA  PTSUNNY   81  68  65 S13       29.90R
TEPIC          CLOUDY    73  57  56 N7        30.02S
URUAPAN        CLOUDY    66  55  68 CALM      30.16R
ZACATECAS      PTSUNNY   64  23  20 SW23G35   30.16R

CENTRAL MEXICO

CITY           SKY/WX    TMP DP  RH WIND       PRES   REMARKS
CUERNAVACA     PTSUNNY   77  50  38 W5        30.07F
LEON           PTSUNNY   70  41  35 W6        30.21F
MEXICO CITY    PTSUNNY   66  45  45 S14       30.24R
MORELIA        PTSUNNY   70  48  46 SE12      30.18
POZA RICA      PTSUNNY   75  64  69 NE7       29.90F
PUEBLA         CLOUDY    64  50  59 S22       30.24S
QUERETARO      PTSUNNY   68  45  42 W12       30.21S
S. LUIS POTOSI PTSUNNY   70  28  21 S15G26    30.12S
TAMPICO        PTSUNNY   72  61  68 SE14      29.89F
TOLUCA         PTSUNNY   61  43  51 S12       30.32R
VERACRUZ       PTSUNNY   77  61  57 S8        29.91F

SOUTHERN MEXICO

CITY           SKY/WX    TMP DP  RH WIND       PRES   REMARKS
ACAPULCO       PTSUNNY   84  73  70 SW8       29.82S
B. DE HUATULCO MOSUNNY   81  73  78 W8        29.87
MINATITLAN     CLOUDY    73  68  83 N12       29.90
OAXACA         PTSUNNY   79  45  29 S9        30.11S
PTO. ESCONDIDO MOSUNNY   81  73  78 S7        29.96S
TAPACHULA      CLEAR     84  75  74 CALM      29.82R
TUX. GUTIERREZ PTCLDY    86  59  39 NW3       29.87S
VILLAHERMOSA   CLOUDY    73  70  88 CALM      29.93R
ZIHUATANEJO    PTSUNNY   86  72  62 SW5       29.84S

YUCATAN PENINSULA

CITY           SKY/WX    TMP DP  RH WIND       PRES   REMARKS
CAMPECHE       PTCLDY    86  70  58 E9        29.91R
CANCUN         MOCLDY    81  72  74 SE10      30.02S
CHETUMAL       MOCLDY    81  73  78 SE12      29.96R
C. DEL CARMEN  CLEAR     82  70  65 E7        29.92
COZUMEL        MOCLDY    75  72  88 E8        30.01R
MERIDA         MOCLDY    86  66  51 SE13      29.95R

$$



USA.gov is the U.S. government's official web portal to all federal, state and local government web resources and services.